Wakefield, VA

5:18 PM EST on February 08, 2016 (GMT -0500)
Wakefield Municipal

Weather History for KAKQ - March, 2013

Change the Weather History Date:

Sunday, March 31, 2013

  Actual Average (KJGG) Record (KJGG)
Temperature  
Mean Temperature 55 °F -  
Max Temperature 64 °F 64 °F 87 °F (1986)
Min Temperature 46 °F 42 °F 19 °F (1964)
Degree Days  
Heating Degree Days 10    
Growing Degree Days 5 (Base 50)    
Moisture  
Dew Point 47 °F    
Average Humidity 80    
Maximum Humidity 94    
Minimum Humidity 52    
Precipitation  
Precipitation 0.38 in - - ()
Sea Level Pressure  
Sea Level Pressure 29.93 in    
Wind  
Wind Speed 3 mph (SSW)    
Max Wind Speed 9 mph    
Max Gust Speed -    
Visibility 8 miles    
Events Rain    
Averages and records for this station are not official NWS values.
T = Trace of Precipitation, MM = Missing Value Source: NWS Daily Summary

Daily Weather History Graph

Daily Weather History Graph

Search for Another Location

Airport or City:

Trip Planner

Search our weather history database for the weather conditions in past years. The results will help you decide how hot, cold, wet, or windy it might be!

Date:

Astronomy

Mar. 31, 2013 Rise Set
Actual Time 6:54 AM EDT 7:29 PM EDT
Civil Twilight 6:28 AM EDT 7:55 PM EDT
Nautical Twilight 5:58 AM EDT 8:26 PM EDT
Astronomical Twilight 5:26 AM EDT 8:58 PM EDT
Moon No Moon Rise 9:46 AM EDT (3/31)
Length of Visible Light 13h 27m
Length of Day
12h 34m
Waning Gibbous, 78% of the Moon is Illuminated
Mar 31
Waning Gibbous
Apr 3
Last Quarter
Apr 10
New
Apr 18
First Quarter
Apr 25
Full

Hourly Weather History & Observations

Time (EDT) Temp. Windchill Dew Point Humidity Pressure Visibility Wind Dir Wind Speed Gust Speed Precip Events Conditions
12:54 AM 48.0 °F - 30.9 °F 52% 30.14 in 10.0 mi Variable 3.5 mph - N/A   Clear
1:54 AM 46.0 °F - 32.0 °F 58% 30.13 in 10.0 mi Calm Calm - N/A   Clear
2:54 AM 46.0 °F - 32.0 °F 58% 30.11 in 10.0 mi Calm Calm - N/A   Clear
3:54 AM 46.0 °F - 35.1 °F 66% 30.09 in 10.0 mi Calm Calm - N/A   Clear
4:54 AM 46.0 °F 44.8 °F 37.0 °F 71% 30.07 in 10.0 mi South 3.5 mph - N/A   Clear
5:54 AM 46.9 °F - 37.9 °F 71% 30.06 in 10.0 mi Calm Calm - N/A   Clear
6:54 AM 48.0 °F - 37.9 °F 68% 30.04 in 10.0 mi Calm Calm - N/A   Clear
7:54 AM 48.9 °F - 37.0 °F 64% 30.03 in 10.0 mi Calm Calm - N/A   Clear
8:54 AM 48.9 °F - 39.9 °F 71% 30.04 in 3.0 mi Calm Calm - 0.01 in Rain Light Rain
9:37 AM 46.4 °F - 44.6 °F 93% 30.03 in 2.5 mi Calm Calm - 0.04 in Rain Rain
9:54 AM 46.9 °F - 45.0 °F 93% 30.04 in 2.0 mi Calm Calm - 0.08 in Rain Rain
9:57 AM 46.4 °F - 44.6 °F 93% 30.03 in 1.8 mi Calm Calm - 0.00 in Rain Rain
10:17 AM 46.4 °F - 44.6 °F 93% 30.01 in 1.8 mi Calm Calm - 0.07 in Rain Rain
10:33 AM 46.4 °F 44.3 °F 44.6 °F 93% 29.98 in 2.0 mi Variable 4.6 mph - N/A Rain Rain
10:54 AM 48.0 °F - 46.0 °F 93% 29.98 in 2.0 mi ESE 3.5 mph - 0.18 in Rain Rain
11:18 AM 50.0 °F - 46.4 °F 87% 29.93 in 4.0 mi SE 8.1 mph - 0.06 in Rain Light Rain
11:54 AM 51.1 °F - 48.0 °F 89% 29.94 in 3.0 mi SSE 6.9 mph - 0.07 in Rain Light Rain
12:08 PM 51.8 °F - 48.2 °F 88% 29.92 in 6.0 mi South 6.9 mph - 0.00 in   Overcast
12:54 PM 54.0 °F - 51.1 °F 90% 29.90 in 7.0 mi South 6.9 mph - 0.00 in   Overcast
1:08 PM 53.6 °F - 51.8 °F 94% 29.88 in 8.0 mi South 9.2 mph - N/A   Mostly Cloudy
1:23 PM 55.4 °F - 51.8 °F 88% 29.87 in 9.0 mi South 6.9 mph - N/A   Mostly Cloudy
1:47 PM 57.2 °F - 53.6 °F 88% 29.85 in 10.0 mi SSW 8.1 mph - N/A   Mostly Cloudy
1:54 PM 57.9 °F - 53.1 °F 84% 29.85 in 10.0 mi Variable 6.9 mph - N/A   Overcast
2:06 PM 59.0 °F - 53.6 °F 82% 29.84 in 10.0 mi SSW 6.9 mph - N/A   Overcast
2:54 PM 60.1 °F - 53.1 °F 78% 29.83 in 10.0 mi SSW 9.2 mph - N/A   Overcast
3:54 PM 62.1 °F - 55.0 °F 78% 29.81 in 10.0 mi WSW 4.6 mph - N/A   Overcast
4:27 PM 62.6 °F - 53.6 °F 72% 29.81 in 10.0 mi West 5.8 mph - N/A   Overcast
4:54 PM 63.0 °F - 55.0 °F 75% 29.82 in 10.0 mi Variable 5.8 mph - N/A   Overcast
5:54 PM 64.0 °F - 55.0 °F 73% 29.81 in 10.0 mi SW 6.9 mph - N/A   Scattered Clouds
6:54 PM 62.1 °F - 55.0 °F 78% 29.80 in 10.0 mi Calm Calm - N/A   Partly Cloudy
7:54 PM 60.1 °F - 55.0 °F 83% 29.80 in 10.0 mi Calm Calm - N/A   Clear
8:54 PM 57.0 °F - 54.0 °F 89% 29.81 in 8.0 mi Calm Calm - N/A   Clear
9:54 PM 60.1 °F - 54.0 °F 80% 29.81 in 10.0 mi WSW 3.5 mph - 0.00 in Rain Light Rain
10:54 PM 59.0 °F - 55.0 °F 87% 29.81 in 6.0 mi SW 6.9 mph - 0.03 in Rain Light Rain
11:54 PM 57.9 °F - 54.0 °F 87% 29.81 in 10.0 mi Calm Calm - 0.01 in   Overcast